Miscellaneous Local Product
Issued by NWS Hastings, NE

Home | Current Version | Previous Version | Text Only | Print | Product List | Glossary On
Versions: 1 2 3 4 5 6 7 8 9 10 11 12 13 14 15 16 17 18 19 20 21 22 23 24 25 26 27 28 29 30 31 32 33 34 35 36 37 38 39 40 41 42 43 44 45 46 47 48 49 50
000
AXUS43 KGID 201702
MISGRI

GID CWA HOURLY WEATHER ROUNDUP
NATIONAL WEATHER SERVICE HASTINGS NE
1100 AM CST FRI JAN 20 2017

NOTE: "FAIR" INDICATES FEW OR NO CLOUDS BELOW 12,000 FEET WITH NO
SIGNIFICANT WEATHER AND/OR OBSTRUCTIONS TO VISIBILITY.

...SOUTH CENTRAL NEBRASKA...

CITY           SKY/WX    TMP DP  RH WIND       PRES   REMARKS
GRAND ISLAND   CLOUDY    38  38 100 S7        29.50R WCI  33
HASTINGS       FOG       39  38  96 S6        29.50S VSB 1/2 WCI  35
KEARNEY        CLOUDY    39  37  93 S8        29.48S VSB 1/4 WCI  34
ORD            CLOUDY    37  34  89 SE6       29.46F WCI  32
YORK           CLOUDY    39  39 100 SE3       29.52S
AURORA         CLOUDY    39  39 100 S7        29.50S WCI  34
LEXINGTON      CLOUDY    38  37  97 S8        29.47S FOG     WCI  32
HOLDREGE       DRIZZLE   38  38  97 SE5       29.47F WCI  35
HEBRON         CLOUDY    40  40 100 CALM      29.51F FOG

...NEBRASKA PANHANDLE...

CITY           SKY/WX    TMP DP  RH WIND       PRES   REMARKS
CHADRON        MOSUNNY   32  26  78 SW9       29.42R WCI  24
ALLIANCE       MOSUNNY   35  30  82 NW12      29.40F WCI  27
SCOTTSBLUFF    CLOUDY    35  27  72 W6        29.43F WCI  30
SIDNEY         CLOUDY    38  30  73 W12       29.44F WCI  30

...WESTERN AND NORTH CENTRAL NEBRASKA...

CITY           SKY/WX    TMP DP  RH WIND       PRES   REMARKS
VALENTINE      SUNNY     37  29  72 SW9       29.39S WCI  30
AINSWORTH      SUNNY     39  32  77 S14       29.40S WCI  30
ONEILL         SUNNY     42  38  86 SW14      29.45S
BROKEN BOW     CLOUDY    39  37  92 VRB3      29.45S
IMPERIAL       CLOUDY    29  27  92 W6        29.45S FOG     WCI  23
NORTH PLATTE   CLOUDY    36  33  89 W6        29.46R WCI  31
MCCOOK         CLOUDY    35  35 100 NW6       29.46F FOG     WCI  30

...EASTERN NEBRASKA...

CITY           SKY/WX    TMP DP  RH WIND       PRES   REMARKS
NORFOLK        CLOUDY    40  39  97 S8        29.49F WCI  34
SO SIOUX CITY  CLOUDY    40  39  97 SE9       29.54F FOG     WCI  34
TEKAMAH        CLOUDY    40  39  97 SE7       29.54F FOG
COLUMBUS       CLOUDY    39  37  93 S8        29.52F WCI  34
ALBION         FOG      N/A N/A N/A S8        29.48F VSB 3/4
OMAHA EPPLEY   CLOUDY    43  39  86 SE8       29.54F FOG
OFFUTT AFB     PTSUNNY   41  41 100 E6        29.54F
MILLARD        CLOUDY    44  43  97 SE6       29.55R FOG
LINCOLN        CLOUDY    41  41 100 SE6       29.54F
NEBRASKA CITY  CLOUDY    41  41 100 E3        29.54F FOG
BEATRICE       CLOUDY    42  42 100 SE3       29.53R
FALLS CITY     FOG       43  43 100 E3        29.55R VSB 1/4

...NORTHERN KANSAS...

CITY           SKY/WX    TMP DP  RH WIND       PRES   REMARKS
GOODLAND       CLOUDY    31  31 100 CALM      29.45R
HILL CITY      CLOUDY    41  41 100 S3        29.48R FOG
NORTON         FOG       37  36  93 CALM      29.45F VSB 0
PHILLIPSBURG   FOG       39  39 100 E5        29.47F VSB 1/4
SMITH CENTER   FOG       37  37 100 E8        29.48F VSB 1/4 WCI  31
HAYS           FOG       42  41  96 S12       29.50R VSB 3/4
RUSSELL        CLOUDY    43  43 100 S6        29.47R FOG
CONCORDIA      RAIN      41  41 100 E7        29.50F VSB 1/4
SALINA         FOG       45  45 100 SE7       29.50F VSB 1/8
TOPEKA         CLOUDY    47  45  93 E7        29.54F



USA.gov is the U.S. government's official web portal to all federal, state and local government web resources and services.